Voltar ao catálogo

COSMOS 2251 DEB

AtivoLEO
NORAD 35476·DEBRIS·🇷🇺 Russia

Lançado Jun 16, 1993 de Plesetsk Cosmodrome

Loading…

Próximas Passagens (próximas 24 horas)

TLE

AtualizadoSource: Space-Track

Época: Sep 14, 2026, 17:06 UTC

1 35476U 93036ALW 26257.71252263  .00007404  00000-0  93616-3 0  9999
2 35476  73.9738 235.9106 0013860 176.9028 239.7989 14.81947065919686

Acompanhe COSMOS 2251 DEB em tempo real com AllMySat

Download on the App Store